Location: Santiago
(33.4378°S, 70.6505°W)
Time: 07:39:22
(UTC+00:00)

ISS - Pass Details

Date: 06 February 2026
Orbit: 413 x 428 km, 51.6° (Epoch: 13 February)

Event Time Altitude Azimuth Distance (km) Brightness Sun altitude
Rises 01:20:08 0° 301° (WNW) 2,389 0.4 -18.8°
Reaches altitude 10° 01:22:17 10° 294° (WNW) 1,531 -0.5 -19.2°
Maximum altitude 01:25:36 44° 220° (SW) 613 -2.5 -19.7°
Drops below altitude 10° 01:28:58 10° 146° (SE) 1,550 -0.9 -20.3°
Enters shadow 01:30:32 - 140° (SE) 2,169 -0.2 -20.6°
